TimeBST,TemperatureF,Dew PointF,Humidity,Sea Level PressureIn,VisibilityMPH,Wind Direction,Wind SpeedMPH,Gust SpeedMPH,PrecipitationIn,Events,Conditions,WindDirDegrees,DateUTC
12:50 AM,52,50,91,29.93,3,North,4.6,,,Rain,Light Rain Showers,10,2013-05-19 23:50:00
12:50 AM,51.8,50.0,94,29.92,-9999.0,North,4.6,-,N/A,Rain,Light Rain Showers,10,2013-05-19 23:50:00
1:50 AM,51.8,50.0,94,29.92,1.7,North,5.8,-,N/A,,Mostly Cloudy,350,2013-05-20 00:50:00
2:50 AM,51.8,50.0,94,29.92,1.5,NNW,5.8,-,N/A,,Mostly Cloudy,340,2013-05-20 01:50:00
3:50 AM,52,51,97,29.91,1,NNW,5.8,,,,Mist,330,2013-05-20 02:50:00
3:50 AM,51.8,51.8,100,29.89,1.2,NNW,5.8,-,N/A,,Overcast,330,2013-05-20 02:50:00
4:50 AM,53.6,51.8,94,29.89,0.6,NNW,4.6,-,N/A,,Mostly Cloudy,330,2013-05-20 03:50:00
5:50 AM,53.6,53.6,100,29.89,0.5,North,5.8,-,N/A,,Light Drizzle,350,2013-05-20 04:50:00
6:50 AM,54,54,98,29.92,1,North,6.9,,,Rain,Light Drizzle,0,2013-05-20 05:50:00
6:50 AM,53.6,53.6,100,29.92,0.7,North,6.9,-,N/A,,Light Drizzle,360,2013-05-20 05:50:00
7:50 AM,51.8,51.8,100,29.92,1.4,NNE,8.1,-,N/A,,Light Drizzle,30,2013-05-20 06:50:00
8:50 AM,55.4,53.6,94,29.92,2.5,North,9.2,-,N/A,,Overcast,360,2013-05-20 07:50:00
9:50 AM,56,54,92,29.93,2,North,12.7,,,,Mist,0,2013-05-20 08:50:00
9:50 AM,55.4,53.6,94,29.92,2.5,North,12.7,-,N/A,,Overcast,360,2013-05-20 08:50:00
10:50 AM,55.4,55.4,100,29.92,2.5,NNE,6.9,-,N/A,,Overcast,20,2013-05-20 09:50:00
12:50 PM,58,55,88,29.94,3,NNE,8.1,,,,Haze,30,2013-05-20 11:50:00
1:50 PM,57.2,55.4,94,29.92,3.1,NE,9.2,-,N/A,,Haze,40,2013-05-20 12:50:00
2:50 PM,57.2,55.4,94,29.95,3.1,NNE,9.2,-,N/A,,Light Drizzle,30,2013-05-20 13:50:00
3:50 PM,59,57,89,29.94,4,NNE,9.2,,,Rain,Light Drizzle,30,2013-05-20 14:50:00
3:50 PM,59.0,57.2,94,29.92,3.7,NNE,9.2,-,N/A,,Haze,30,2013-05-20 14:50:00
4:50 PM,59.0,55.4,88,29.92,3.1,North,6.9,-,N/A,,Haze,360,2013-05-20 15:50:00
5:50 PM,60.8,57.2,88,29.92,4.3,NNW,6.9,-,N/A,,Haze,340,2013-05-20 16:50:00
6:50 PM,60,56,83,29.95,4,North,4.6,,,,Light Haze,10,2013-05-20 17:50:00
6:50 PM,60.8,55.4,82,29.95,4.3,North,4.6,-,N/A,,Haze,10,2013-05-20 17:50:00
7:50 PM,59.0,55.4,88,29.95,4.3,ENE,3.5,-,N/A,,Haze,60,2013-05-20 18:50:00
8:50 PM,55.4,53.6,94,29.95,-9999.0,NNE,6.9,-,N/A,,Haze,20,2013-05-20 19:50:00
9:50 PM,53,51,90,29.99,3,NNE,8.1,,,,Light Haze,30,2013-05-20 20:50:00
9:50 PM,53.6,51.8,94,29.98,2.8,NNE,8.1,-,N/A,,Haze,30,2013-05-20 20:50:00
10:50 PM,51.8,50.0,94,30.01,-9999.0,NNE,11.5,-,N/A,,Haze,30,2013-05-20 21:50:00
11:50 PM,50.0,48.2,94,30.01,-9999.0,North,10.4,-,N/A,,Light Drizzle,10,2013-05-20 22:50:00